Preview of NWS' New Version of Forecast
This preview is not operational and should not be used for support decisions.

Regional Weather Roundup (RWR)

Issued by National Weather Service (NWS)

                            
000
ASUS45 KCYS 201010
RWRWY 

WYOMING REGIONAL WEATHER ROUNDUP
NATIONAL WEATHER SERVICE CHEYENNE WY
400 AM MDT SAT APR 20 2019

NOTE:  "FAIR" INDICATES FEW OR NO CLOUDS BELOW 12,000 FEET
WITH NO SIGNIFICANT WEATHER AND/OR OBSTRUCTIONS TO VISIBILITY.

WYZ001-201100-
...YELLOWSTONE NATIONAL PARK...
  
CITY           SKY/WX    TMP DP  RH WIND       PRES   REMARKS
LK YELLOWSTONE   N/A     29  26  89 CALM      29.99F                  
W YELLOWSTONE  NOT AVBL                                               

$$
WYZ002>013-054>058-071-098>099-201100-
...NORTHERN WYOMING...
  
CITY           SKY/WX    TMP DP  RH WIND       PRES   REMARKS
JACKSON        FAIR      33  28  81 N10       29.96F WCI  25          
CODY           FAIR      61  29  29 SE7G18    29.82F                  
GREYBULL       FAIR      50  30  46 SE3       29.78R                  
WORLAND        FAIR      49  35  58 SE8       29.79F                  
SHERIDAN       FAIR      50  34  54 VRB3      29.73F                  
BUFFALO        FAIR      58  31  35 NW9       29.77F                  
GILLETTE       FAIR      55  34  45 SW20      29.73F                  
HULETT         FAIR      50  36  57 CALM      29.75F                  
NEWCASTLE      FAIR      55  30  38 SE9G24    29.80F                  

$$
WYZ014>020-022>026-101>103-201100-
...CENTRAL WYOMING...
  
CITY           SKY/WX    TMP DP  RH WIND       PRES   REMARKS
BIG PINEY      FAIR      31  26  82 NE9       30.00F WCI  23          
PINEDALE       FAIR      28  28 100 W5        30.03S WCI  23          
DUBOIS         FAIR      37  27  65 NW15      29.95F WCI  28          
LANDER         FAIR      53  26  35 W6        29.88F                  
RIVERTON       FAIR      50  30  46 W5        29.89S                  
CASPER         FAIR      45  32  60 W9        29.87F                  
DOUGLAS        FAIR      40  35  83 S5        29.86F                  

$$
WYZ021-027>030-104>119-201100-
...SOUTHERN WYOMING...
  
CITY           SKY/WX    TMP DP  RH WIND       PRES   REMARKS
EVANSTON       FAIR      46  22  38 S5        29.99F                  
KEMMERER       FAIR      34  28  80 N8        30.01F WCI  27          
FORT BRIDGER   FAIR      46  27  46 SW8       30.03F                  
ROCK SPRINGS   FAIR      45  27  49 N3        30.00F                  
DIXON          FAIR      34  25  71 E7        30.06F WCI  28          
RAWLINS        FAIR      48  24  39 SW12      30.00F                  
SARATOGA       FAIR      37  23  56 SE3       30.03F                  
LARAMIE        FAIR      43  25  49 SW16      30.02F                  
CHEYENNE       FAIR      48  28  46 W14       29.96F                  
TORRINGTON     FAIR      41  35  79 CALM      29.84F                  
PINE BLUFFS    FAIR      36  32  87 CALM      29.93F                  

$$